[[{"header":{"parameterUnit":"m.s-1","parameterCategory":1,"la1":30.2992,"la2":30.254,"lo1":-89.0895,"lo2":-89.0443,"dy":0.0025,"dx":0.0025,"nx":19,"ny":19,"refTime":"2026-03-09T03:00:00:Z","depth":0,"parameterNumber":2,"parameterNumberName":"U-component_of_WINDS"},"data":[0,0,0,-2.1191,-2.1193,-2.1264,-2.1264,-2.1361,-2.1361,0,0,0,0,0,0,0,0,0,0,0,-2.1172,-2.1173,-2.1191,-2.1193,-2.1264,-2.1264,-2.136,-2.1361,0,0,0,0,0,0,0,0,0,0,0,-2.1172,-2.1173,-2.1173,-2.1193,-2.1264,-2.1264,-2.136,-2.1305,0,0,0,0,0,0,0,0,0,0,-2.1235,-2.1219,-2.1172,-2.1174,-2.1194,-2.1264,-2.1264,-2.1302,-2.1308,-2.133,0,-2.1349,0,-2.1357,-2.1368,-2.1368,0,0,0,-2.1192,-2.1214,-2.1231,-2.1174,-2.1194,-2.1264,-2.1232,-2.1306,-2.1313,-2.1339,-2.135,-2.1354,-2.1358,-2.1369,-2.1369,-2.1496,-2.1497,0,0,-2.1188,-2.1186,-2.1226,-2.1236,-2.1223,-2.1229,-2.1234,-2.131,-2.1323,-2.1351,-2.1356,-2.136,-2.1369,-2.137,-2.1496,-2.1496,0,0,0,-2.1178,-2.1183,-2.1199,-2.1232,-2.1244,-2.1231,-2.1237,-2.1319,-2.1325,-2.1357,-2.1361,-2.137,-2.1371,-2.1495,-2.1496,-2.1524,0,0,0,-2.1175,-2.1177,-2.1197,-2.1197,-2.1243,-2.1282,-2.1245,-2.1319,-2.1328,-2.1361,-2.137,-2.1372,-2.1494,-2.1496,-2.1522,-2.1538,0,0,0,-2.1167,-2.1176,-2.1187,-2.1196,-2.1227,-2.1281,-2.1291,-2.1321,-2.1331,-2.1369,-2.1372,-2.1494,-2.1495,-2.152,-2.1534,-2.157,0,0,0,-2.1158,-2.1211,-2.1187,-2.125,-2.1226,-2.1298,-2.129,-2.1344,-2.138,-2.1371,-2.1494,-2.1496,-2.1519,-2.1532,-2.1568,-2.1599,-2.1611,0,0,-2.1224,-2.1219,-2.1256,-2.1237,-2.1312,-2.1288,-2.1368,-2.1404,-2.141,-2.1468,-2.1471,-2.1523,-2.1534,-2.157,-2.1687,-2.1697,0,0,0,-2.1277,-2.1303,-2.1324,-2.1357,-2.1386,-2.1411,-2.1435,-2.1449,-2.1497,-2.1439,-2.1546,-2.1553,-2.1574,-2.1589,-2.1597,-2.1616,-2.1503,-2.1503,-2.1503,-2.1366,-2.1372,-2.1433,-2.1447,-2.1481,-2.1505,-2.1533,-2.1556,-2.1551,-2.1577,-2.1593,-2.1664,-2.1681,-2.1688,-2.1706,-2.1611,-2.1612,-2.1612,-2.1612,-2.1463,-2.1501,-2.1496,-2.1552,-2.1559,-2.1608,-2.1635,-2.1631,-2.1678,-2.1652,-2.167,-2.164,-2.1698,-2.1715,-2.1614,-2.1614,-2.1613,-2.1613,-2.1613,-2.1521,-2.154,-2.1556,-2.1607,-2.1646,-2.166,-2.1705,-2.171,-2.1715,-2.1733,-2.1751,-2.1751,-2.175,-2.1742,-2.1742,-2.1743,-2.1743,-2.1743,-2.1743,-2.1574,-2.1591,-2.1628,-2.1665,-2.1688,-2.1719,-2.1746,-2.177,-2.1797,-2.1797,-2.1797,-2.1791,-2.1704,-2.1681,-2.1747,-2.1746,-2.1746,-2.1745,-2.1745,-2.1668,-2.1648,-2.1705,-2.1728,-2.1772,-2.1811,-2.1817,-2.1865,-2.1886,-2.1909,-2.1899,-2.1835,-2.183,-2.1823,-2.1804,-2.1898,-2.1898,-2.1898,-2.1898,-2.1715,-2.1714,-2.1774,-2.1811,-2.1848,-2.186,-2.1927,-2.195,-2.1971,-2.1985,-2.1973,-2.1949,-2.1942,-2.1941,-2.1932,-2.1914,-2.2034,-2.2034,-2.2034,-2.1773,-2.1776,-2.183,-2.1849,-2.1885,-2.1916,-2.1978,-2.2023,-2.2043,-2.204,-2.1996,-2.199,-2.1951,-2.1939,-2.1931,-2.1916,-2.1884,0,0]},{"header":{"parameterUnit":"m.s-1","parameterCategory":1,"la1":30.2992,"la2":30.254,"lo1":-89.0895,"lo2":-89.0443,"dy":0.0025,"dx":0.0025,"nx":19,"ny":19,"refTime":"2026-03-09T03:00:00:Z","depth":0,"parameterNumber":3,"parameterNumberName":"V-component_of_WINDS"},"data":[0,0,0,1.9472,1.9474,1.9553,1.9554,1.9636,1.9636,0,0,0,0,0,0,0,0,0,0,0,1.9437,1.9437,1.9472,1.9474,1.9553,1.9554,1.9636,1.9636,0,0,0,0,0,0,0,0,0,0,0,1.9437,1.9437,1.9438,1.9474,1.9553,1.9554,1.9636,1.9583,0,0,0,0,0,0,0,0,0,0,1.9509,1.9465,1.9437,1.9438,1.9475,1.9553,1.9554,1.958,1.9586,1.9592,0,1.9594,0,1.9617,1.9641,1.9641,0,0,0,1.9482,1.946,1.9492,1.9438,1.9475,1.9553,1.952,1.9584,1.959,1.9599,1.9596,1.9599,1.9618,1.9641,1.9642,1.9651,1.965,0,0,1.9478,1.9445,1.9488,1.9496,1.9483,1.9517,1.9522,1.9588,1.9581,1.9596,1.9601,1.9619,1.9642,1.9642,1.9651,1.965,0,0,0,1.946,1.9441,1.9473,1.9492,1.9508,1.9519,1.9525,1.9579,1.9592,1.9602,1.962,1.9642,1.9643,1.9651,1.9651,1.9602,0,0,0,1.9457,1.9431,1.947,1.9451,1.9506,1.9544,1.9514,1.9587,1.9595,1.962,1.9642,1.9643,1.9652,1.9651,1.9604,1.9584,0,0,0,1.9436,1.9429,1.9436,1.9449,1.9482,1.9544,1.9561,1.959,1.9606,1.9641,1.9644,1.9652,1.9651,1.9606,1.9587,1.9577,0,0,0,1.9403,1.939,1.9435,1.9428,1.9481,1.9514,1.9561,1.9587,1.9611,1.9642,1.9652,1.9651,1.9607,1.9589,1.9579,1.9562,1.9553,0,0,1.9369,1.9385,1.9384,1.9426,1.9443,1.9504,1.9514,1.9566,1.9599,1.9631,1.9632,1.9604,1.9588,1.9578,1.951,1.9502,0,0,0,1.9362,1.936,1.9372,1.9395,1.9436,1.947,1.9525,1.9545,1.9575,1.9609,1.9599,1.959,1.9586,1.9579,1.9572,1.9571,1.9647,1.9647,1.9647,1.9264,1.9309,1.931,1.9365,1.9386,1.9445,1.9467,1.9504,1.9541,1.9538,1.9547,1.9501,1.9492,1.9487,1.9485,1.9542,1.9542,1.9542,1.9542,1.9217,1.9222,1.9275,1.9295,1.9343,1.936,1.9417,1.9443,1.9466,1.9497,1.9495,1.9523,1.9476,1.9477,1.9539,1.9539,1.954,1.954,1.954,1.9157,1.9168,1.9194,1.9234,1.9259,1.9315,1.9336,1.9378,1.9418,1.9416,1.9431,1.9432,1.9438,1.9421,1.9421,1.9421,1.9421,1.942,1.942,1.9084,1.9116,1.9128,1.9174,1.9195,1.9229,1.929,1.9312,1.9347,1.9377,1.9377,1.9415,1.9464,1.9475,1.9418,1.9418,1.9419,1.9419,1.9419,1.9019,1.9041,1.906,1.9082,1.914,1.9163,1.9218,1.926,1.9285,1.9294,1.9334,1.9363,1.9382,1.9388,1.9398,1.9324,1.9324,1.9324,1.9324,1.8968,1.8983,1.9013,1.9045,1.9082,1.9135,1.9156,1.9204,1.9257,1.9275,1.9293,1.9309,1.9313,1.933,1.9337,1.9347,1.9262,1.9262,1.9262,1.893,1.8951,1.896,1.9014,1.9063,1.9105,1.9126,1.9161,1.9226,1.926,1.9291,1.9293,1.9321,1.9327,1.9359,1.9369,1.9388,0,0]}]]